Flag for Austria Weather past 2 weeks in Lilienfeld, Lower Austria, Austria

Now
61 °F

Passing clouds.


Feels Like: 61 °F
Forecast: 49 / 67 °F
Wind: 6 mph from Southeast

Location: Tulln Airport

Current Time: Sep 17, 2014 at 1:54:22 AM

Latest Report: Sep 16, 2014 at 10:50 PM


Visibility: 19 mi

Pressure: 30.09 "Hg

Humidity: 88%

Dew point: 57 °F

Location of LilienfeldLocation

Historic Weather in Lilienfeld — Graph

°F

Lilienfeld temperature yesterday

Maximum temperature yesterday: 70 °F (at 1:50 PM)
Minimum temperature yesterday: 55 °F (at 5:50 AM)
Average temperature yesterday: 64 °F

Past Weeks' High & Low Weather Summary

 TemperatureHumidityPressure
High79 °F (Sep 5, 1:50 PM)100% (Sep 2, 5:50 AM)30.09 "Hg (Sep 2, 5:50 AM)
Low54 °F (Sep 9, 6:50 AM)50% (Sep 10, 3:50 PM)29.83 "Hg (Sep 12, 5:50 AM)
Average63 °F85%30.01 "Hg
* Reported Sep 1 10:50 PM — Sep 16 10:50 PM, Lilienfeld, Weather by CustomWeather, © 2014

Note: Actual official high and low records may vary slightly from our data, if they occured in-between our weather recording intervals... More about our weather records

Advertising

Lilienfeld weather history for previous 24 hours

 ConditionsComfort  
Time TempWeatherWind HumidityBarometerVisibility
10:50 PM
Sep 16
61 °FPassing clouds.6 mph88%30.09 "Hg19 mi
9:50 PM61 °FPassing clouds.6 mph88%30.09 "Hg19 mi
8:50 PM61 °FPassing clouds.7 mph88%30.09 "Hg19 mi
7:50 PM63 °FBroken clouds.9 mph83%30.07 "Hg22 mi
6:50 PM64 °FBroken clouds.9 mph83%30.07 "Hg25 mi
5:50 PM68 °FBroken clouds.10 mph73%30.07 "Hg25 mi
4:50 PM68 °FBroken clouds.13 mph73%30.07 "Hg22 mi
3:50 PM70 °FPartly sunny.12 mph69%30.07 "Hg22 mi
2:50 PM70 °FPartly sunny.13 mph64%30.07 "Hg22 mi
1:50 PM70 °FPartly sunny.9 mph64%30.09 "Hg19 mi
12:50 PM68 °FBroken clouds.10 mph69%30.09 "Hg16 mi
11:50 AM68 °FPartly sunny.8 mph73%30.09 "Hg12 mi
10:50 AM66 °FPartly sunny.3 mph83%30.09 "Hg7 mi
9:50 AM63 °FPartly sunny.6 mph94%30.09 "Hg4 mi
8:50 AM59 °FFog.3 mph100%30.07 "Hg2 mi
7:50 AM57 °FFog.3 mph100%30.07 "Hg2 mi
6:50 AM55 °FFog.2 mph100%30.07 "Hg1 mi
5:50 AM55 °FFog.3 mph100%30.07 "Hg1 mi
Weather by CustomWeather, © 2014

See weather overviewHow to use our weather pages